Radiation Dose at Monitoring Post of Fukushima Daini Nuclear Power Station
Date,Time,MP-1(microSv/h),MP-2(microSv/h),MP-3(microSv/h),MP-4(microSv/h),MP-5(microSv/h),MP-6(microSv/h),MP-7(microSv/h),Wind Direction,Wind Velocity(m/s),Rain
2016/03/07,00:00,0.467,0.268,0.485,0.434,0.401,0.219,0.192,south-southwest,9.2,No
2016/03/07,00:10,0.464,0.267,0.483,0.435,0.399,0.219,0.192,south-southwest,9.7,No
2016/03/07,00:20,0.468,0.266,0.484,0.434,0.400,0.220,0.191,south-southwest,10.3,No
2016/03/07,00:30,0.464,0.268,0.482,0.432,0.398,0.219,0.191,south-southwest,9.6,No
2016/03/07,00:40,0.467,0.267,0.485,0.435,0.397,0.219,0.192,south-southwest,10.4,No
2016/03/07,00:50,0.463,0.267,0.482,0.432,0.401,0.219,0.191,south-southwest,11.0,No
2016/03/07,01:00,0.467,0.266,0.486,0.435,0.398,0.218,0.192,south-southwest,10.3,No
2016/03/07,01:10,0.464,0.268,0.481,0.432,0.401,0.218,0.191,south-southwest,9.5,No
2016/03/07,01:20,0.466,0.266,0.485,0.434,0.397,0.219,0.192,south-southwest,9.3,No
2016/03/07,01:30,0.465,0.267,0.482,0.431,0.402,0.218,0.191,south-southwest,10.0,No
2016/03/07,01:40,0.462,0.267,0.487,0.434,0.397,0.219,0.191,south-southwest,10.0,No
2016/03/07,01:50,0.466,0.266,0.482,0.431,0.401,0.218,0.192,south-southwest,10.1,No
2016/03/07,02:00,0.464,0.269,0.487,0.434,0.399,0.219,0.192,south-southwest,10.1,No
2016/03/07,02:10,0.465,0.266,0.482,0.432,0.399,0.218,0.192,south-southwest,10.2,No
2016/03/07,02:20,0.461,0.268,0.486,0.433,0.401,0.219,0.193,south-southwest,10.6,No
2016/03/07,02:30,0.467,0.268,0.484,0.435,0.397,0.218,0.190,south-southwest,10.1,No
2016/03/07,02:40,0.463,0.268,0.486,0.432,0.401,0.218,0.192,south-southwest,8.3,No
2016/03/07,02:50,0.467,0.268,0.482,0.434,0.396,0.218,0.192,south-southwest,9.2,No
2016/03/07,03:00,0.464,0.267,0.486,0.431,0.401,0.218,0.191,south-southwest,10.5,No
2016/03/07,03:10,0.467,0.267,0.484,0.435,0.397,0.218,0.192,south-southwest,11.6,No
2016/03/07,03:20,0.464,0.267,0.482,0.432,0.400,0.218,0.192,south-southwest,9.4,No
2016/03/07,03:30,0.464,0.269,0.484,0.434,0.397,0.219,0.192,south-southwest,7.2,No
2016/03/07,03:40,0.464,0.266,0.484,0.432,0.400,0.217,0.191,south-southwest,8.5,No
2016/03/07,03:50,0.465,0.268,0.484,0.435,0.399,0.219,0.192,south-southwest,10.3,No
2016/03/07,04:00,0.464,0.268,0.484,0.433,0.398,0.217,0.192,south-southwest,10.1,No
2016/03/07,04:10,0.463,0.267,0.485,0.434,0.400,0.219,0.192,south-southwest,9.9,No
2016/03/07,04:20,0.468,0.268,0.484,0.433,0.398,0.220,0.192,south-southwest,10.1,No
2016/03/07,04:30,0.463,0.266,0.485,0.434,0.402,0.218,0.192,south-southwest,11.5,No
2016/03/07,04:40,0.465,0.268,0.483,0.432,0.398,0.219,0.192,south-southwest,9.8,No
2016/03/07,04:50,0.463,0.267,0.485,0.432,0.400,0.218,0.192,south-southwest,11.8,No
2016/03/07,05:00,0.469,0.269,0.482,0.434,0.397,0.219,0.192,south-southwest,11.7,No
2016/03/07,05:10,0.464,0.267,0.485,0.432,0.400,0.219,0.192,south-southwest,10.4,No
2016/03/07,05:20,0.466,0.268,0.483,0.434,0.398,0.219,0.192,south-southwest,10.0,No
2016/03/07,05:30,0.464,0.266,0.486,0.432,0.398,0.218,0.191,south-southwest,11.4,No
2016/03/07,05:40,0.468,0.268,0.484,0.434,0.399,0.219,0.192,south-southwest,13.4,No
2016/03/07,05:50,0.464,0.268,0.486,0.430,0.398,0.218,0.192,south-southwest,14.4,No
2016/03/07,06:00,0.467,0.266,0.482,0.434,0.401,0.220,0.192,south-southwest,13.6,No
2016/03/07,06:10,0.465,0.268,0.485,0.431,0.398,0.220,0.192,south-southwest,13.1,No
2016/03/07,06:20,0.466,0.267,0.480,0.434,0.401,0.219,0.192,south-southwest,10.6,No
2016/03/07,06:30,0.465,0.269,0.487,0.432,0.396,0.217,0.193,south-southwest,9.7,No
2016/03/07,06:40,0.464,0.267,0.481,0.435,0.401,0.218,0.192,south-southwest,10.1,No
2016/03/07,06:50,0.465,0.268,0.485,0.432,0.397,0.219,0.192,south-southwest,11.0,No
2016/03/07,07:00,0.464,0.266,0.482,0.433,0.399,0.218,0.192,south-southwest,10.7,No
2016/03/07,07:10,0.468,0.268,0.487,0.432,0.397,0.218,0.191,south-southwest,11.5,No
2016/03/07,07:20,0.462,0.268,0.481,0.433,0.400,0.220,0.192,south-southwest,11.8,No
2016/03/07,07:30,0.467,0.266,0.485,0.433,0.399,0.218,0.194,south-southwest,11.8,No
2016/03/07,07:40,0.463,0.268,0.481,0.433,0.401,0.219,0.192,south-southwest,11.9,No
2016/03/07,07:50,0.465,0.266,0.484,0.432,0.399,0.217,0.191,south-southwest,11.5,No
2016/03/07,08:00,0.464,0.268,0.480,0.432,0.397,0.219,0.191,south-southwest,12.8,No
2016/03/07,08:10,0.466,0.266,0.487,0.432,0.400,0.218,0.192,south-southwest,11.7,No
2016/03/07,08:20,0.463,0.267,0.481,0.430,0.398,0.219,0.192,south-southwest,9.1,No
2016/03/07,08:30,0.467,0.265,0.486,0.432,0.400,0.218,0.193,south-southwest,9.1,No
2016/03/07,08:40,0.464,0.267,0.482,0.433,0.398,0.218,0.193,south,9.1,No
2016/03/07,08:50,0.466,0.266,0.484,0.433,0.399,0.219,0.191,south,10.3,No
2016/03/07,09:00,0.464,0.268,0.483,0.432,0.398,0.218,0.191,south-southwest,11.2,No
2016/03/07,09:10,0.466,0.267,0.481,0.432,0.398,0.217,0.192,south-southwest,10.5,No
2016/03/07,09:20,0.463,0.269,0.485,0.434,0.399,0.219,0.193,south-southwest,11.2,No
2016/03/07,09:30,0.465,0.266,0.481,0.431,0.398,0.219,0.192,south,12.7,No
2016/03/07,09:40,0.465,0.267,0.485,0.434,0.399,0.219,0.192,south-southwest,13.3,No
2016/03/07,09:50,0.464,0.267,0.483,0.430,0.399,0.218,0.192,south-southwest,12.1,No
2016/03/07,10:00,0.465,0.267,0.488,0.433,0.400,0.218,0.193,south-southwest,12.6,No
2016/03/07,10:10,0.462,0.268,0.481,0.432,0.398,0.219,0.191,south,13.2,Yes
2016/03/07,10:20,0.466,0.266,0.485,0.435,0.401,0.218,0.193,south,11.8,Yes
2016/03/07,10:30,0.462,0.267,0.482,0.431,0.399,0.219,0.192,south-southwest,9.8,No
2016/03/07,10:40,0.468,0.266,0.484,0.436,0.401,0.218,0.193,south-southwest,11.0,No
2016/03/07,10:50,0.462,0.268,0.485,0.433,0.398,0.218,0.192,south-southwest,10.3,No
2016/03/07,11:00,0.466,0.266,0.482,0.435,0.401,0.218,0.192,south-southwest,12.0,No
2016/03/07,11:10,0.464,0.267,0.485,0.429,0.397,0.219,0.191,south-southwest,13.0,Yes
2016/03/07,11:20,0.464,0.264,0.482,0.434,0.399,0.216,0.191,south-southwest,13.1,Yes
2016/03/07,11:30,0.461,0.267,0.485,0.430,0.397,0.219,0.192,south-southwest,11.3,Yes
2016/03/07,11:40,0.465,0.266,0.483,0.434,0.400,0.219,0.190,south-southwest,10.5,Yes
2016/03/07,11:50,0.462,0.267,0.481,0.432,0.398,0.219,0.191,south-southwest,9.8,Yes
2016/03/07,12:00,0.464,0.267,0.480,0.434,0.399,0.218,0.191,south-southwest,8.2,Yes
2016/03/07,12:10,0.460,0.269,0.480,0.429,0.398,0.220,0.191,south-southwest,8.3,Yes
2016/03/07,12:20,0.464,0.268,0.480,0.428,0.397,0.219,0.192,south-southwest,7.9,Yes
2016/03/07,12:30,0.460,0.269,0.478,0.430,0.399,0.221,0.191,south-southwest,10.4,Yes
2016/03/07,12:40,0.463,0.268,0.477,0.428,0.396,0.219,0.191,south-southwest,10.9,Yes
2016/03/07,12:50,0.459,0.268,0.476,0.429,0.398,0.219,0.191,south-southwest,12.1,Yes
2016/03/07,13:00,0.461,0.266,0.475,0.423,0.393,0.218,0.190,south,7.6,Yes
2016/03/07,13:10,0.456,0.266,0.470,0.425,0.397,0.219,0.191,south-southwest,12.9,Yes
2016/03/07,13:20,0.459,0.267,0.471,0.421,0.393,0.219,0.191,south-southwest,11.0,Yes
2016/03/07,13:30,0.456,0.266,0.470,0.425,0.397,0.219,0.190,south-southwest,10.7,Yes
2016/03/07,13:40,0.457,0.265,0.473,0.421,0.393,0.218,0.191,south-southwest,10.0,Yes
2016/03/07,13:50,0.456,0.263,0.469,0.423,0.395,0.217,0.190,south-southwest,10.9,No
2016/03/07,14:00,0.457,0.264,0.471,0.423,0.394,0.218,0.189,south-southwest,9.3,No
2016/03/07,14:10,0.454,0.262,0.466,0.422,0.395,0.215,0.187,south-southwest,10.6,Yes
2016/03/07,14:20,0.454,0.264,0.471,0.421,0.392,0.216,0.188,south-southwest,10.0,Yes
2016/03/07,14:30,0.454,0.261,0.467,0.420,0.393,0.214,0.187,south-southwest,9.1,No
2016/03/07,14:40,0.455,0.262,0.470,0.421,0.394,0.215,0.185,south-southwest,9.7,Yes
2016/03/07,14:50,0.453,0.260,0.466,0.418,0.392,0.214,0.186,south-southwest,9.6,No
2016/03/07,15:00,0.453,0.261,0.470,0.421,0.394,0.215,0.185,south-southwest,8.1,No
2016/03/07,15:10,0.452,0.260,0.465,0.419,0.391,0.214,0.185,south-southwest,8.5,No
2016/03/07,15:20,0.452,0.261,0.469,0.422,0.394,0.213,0.185,south-southwest,8.9,No
2016/03/07,15:30,0.454,0.261,0.468,0.418,0.391,0.213,0.185,south-southwest,8.5,No
2016/03/07,15:40,0.453,0.259,0.468,0.421,0.394,0.213,0.184,south-southwest,7.2,No
2016/03/07,15:50,0.454,0.260,0.466,0.417,0.390,0.213,0.184,south-southwest,7.8,No
2016/03/07,16:00,0.453,0.260,0.467,0.421,0.395,0.213,0.185,south-southwest,8.2,No
2016/03/07,16:10,0.455,0.260,0.466,0.418,0.391,0.212,0.185,south-southwest,8.2,No
2016/03/07,16:20,0.450,0.260,0.467,0.420,0.393,0.213,0.185,south-southwest,6.1,Yes
2016/03/07,16:30,0.456,0.261,0.467,0.419,0.392,0.212,0.184,south-southwest,2.7,Yes
2016/03/07,16:40,0.452,0.260,0.468,0.420,0.393,0.213,0.184,south-southwest,1.1,No
2016/03/07,16:50,0.453,0.260,0.468,0.421,0.394,0.212,0.184,south-southwest,2.8,No
2016/03/07,17:00,0.452,0.262,0.468,0.420,0.391,0.213,0.185,south-southwest,3.0,No
2016/03/07,17:10,0.453,0.261,0.469,0.423,0.395,0.214,0.185,south-southwest,4.1,No
2016/03/07,17:20,0.456,0.261,0.465,0.420,0.393,0.213,0.185,southwest,3.6,No
2016/03/07,17:30,0.453,0.260,0.470,0.421,0.394,0.214,0.185,south-southwest,1.4,No
2016/03/07,17:40,0.455,0.262,0.467,0.419,0.393,0.213,0.185,south-southwest,3.0,No
2016/03/07,17:50,0.452,0.260,0.470,0.420,0.393,0.213,0.185,west,1.1,Yes
2016/03/07,18:00,0.456,0.261,0.467,0.419,0.395,0.214,0.185,west-southwest,1.9,Yes
2016/03/07,18:10,0.453,0.260,0.470,0.421,0.392,0.214,0.187,west-southwest,1.7,Yes
2016/03/07,18:20,0.456,0.260,0.469,0.422,0.394,0.215,0.186,west,1.6,Yes
2016/03/07,18:30,0.454,0.263,0.469,0.420,0.393,0.214,0.186,southwest,1.2,Yes
2016/03/07,18:40,0.455,0.261,0.470,0.423,0.394,0.215,0.187,northwest,1.1,Yes
2016/03/07,18:50,0.457,0.263,0.467,0.420,0.394,0.215,0.187,northwest,1.3,Yes
2016/03/07,19:00,0.452,0.261,0.471,0.423,0.392,0.216,0.188,north,1.2,No
2016/03/07,19:10,0.456,0.261,0.466,0.422,0.395,0.216,0.187,north,1.7,No
2016/03/07,19:20,0.454,0.263,0.469,0.420,0.393,0.216,0.186,north,2.3,Yes
2016/03/07,19:30,0.455,0.260,0.467,0.421,0.394,0.216,0.185,north-northeast,1.1,Yes
2016/03/07,19:40,0.457,0.262,0.467,0.420,0.392,0.214,0.187,north,1.7,No
2016/03/07,19:50,0.453,0.264,0.470,0.423,0.392,0.215,0.186,north,2.1,No
2016/03/07,20:00,0.455,0.260,0.467,0.418,0.395,0.215,0.186,north-northeast,2.3,No
2016/03/07,20:10,0.454,0.260,0.470,0.421,0.392,0.214,0.185,north,2.8,No
2016/03/07,20:20,0.456,0.259,0.468,0.420,0.393,0.215,0.186,north-northeast,3.5,No
2016/03/07,20:30,0.455,0.261,0.469,0.419,0.391,0.214,0.186,north,3.9,No
2016/03/07,20:40,0.452,0.262,0.466,0.421,0.390,0.213,0.184,north,3.5,No
2016/03/07,20:50,0.453,0.260,0.467,0.419,0.393,0.214,0.186,north,3.9,No
2016/03/07,21:00,0.453,0.261,0.470,0.421,0.391,0.213,0.185,north,4.3,No
2016/03/07,21:10,0.455,0.260,0.466,0.419,0.393,0.214,0.185,north,4.7,No
2016/03/07,21:20,0.452,0.259,0.470,0.419,0.392,0.212,0.185,north,4.4,No
2016/03/07,21:30,0.452,0.261,0.468,0.421,0.392,0.213,0.185,north,3.7,No
2016/03/07,21:40,0.455,0.259,0.470,0.418,0.391,0.214,0.186,north,4.5,No
2016/03/07,21:50,0.453,0.262,0.468,0.421,0.390,0.213,0.185,north,4.5,No
2016/03/07,22:00,0.456,0.260,0.467,0.419,0.395,0.214,0.185,north,4.5,No
2016/03/07,22:10,0.452,0.260,0.469,0.422,0.391,0.213,0.185,north,4.5,No
2016/03/07,22:20,0.455,0.262,0.466,0.421,0.393,0.213,0.185,north,5.9,No
2016/03/07,22:30,0.453,0.260,0.471,0.419,0.393,0.214,0.185,north,6.4,No
2016/03/07,22:40,0.453,0.261,0.466,0.420,0.392,0.214,0.185,north,4.2,No
2016/03/07,22:50,0.454,0.261,0.470,0.418,0.392,0.214,0.186,north,4.3,No
2016/03/07,23:00,0.451,0.260,0.467,0.421,0.390,0.213,0.184,north,3.1,No
2016/03/07,23:10,0.455,0.260,0.468,0.418,0.392,0.214,0.185,north,2.5,No
2016/03/07,23:20,0.453,0.259,0.469,0.420,0.393,0.214,0.184,north,1.4,No
2016/03/07,23:30,0.453,0.261,0.467,0.420,0.391,0.213,0.186,north,1.7,Yes
2016/03/07,23:40,0.454,0.260,0.470,0.419,0.394,0.215,0.186,north,1.2,No
2016/03/07,23:50,0.452,0.260,0.466,0.421,0.392,0.212,0.185,-,CALM,No
